CW5619 Weather Reports


time (UTC)temp
F
wind
direction
speed
knots
gust
knots
rain 1hr
in
rain 24hr
in
rain mn
in
humidity
%
barometer
mb
20260502170403 81 175 3.5 10.4 0.00 0.00 0.00 28 1015.2
20260502163902 80 156 2.6 11.3 0.00 0.00 0.00 28 1015.0
20260502163402 80 165 3.5 10.4 0.00 0.00 0.00 28 1014.9
20260502162403 79 217 3.5 10.4 0.00 0.00 0.00 29 1014.8
20260502161903 79 104 4.3 12.2 0.00 0.00 0.00 28 1014.8
20260502160903 79 125 4.3 11.3 0.00 0.00 0.00 29 1014.8
20260502151902 75 16 0.9 4.3 0.00 0.00 0.00 32 1014.6
20260502151402 75 40 0.9 4.3 0.00 0.00 0.00 33 1014.6
20260502150903 74 40 1.7 4.3 0.00 0.00 0.00 33 1014.5
20260502150403 74 38 1.7 2.6 0.00 0.00 0.00 34 1014.6
20260502123403 61 115 0.0 1.7 0.00 0.00 0.00 36 1013.1
20260502122902 61 116 0.0 1.7 0.00 0.00 0.00 35 1013.1
20260502121903 62 100 0.0 2.6 0.00 0.00 0.00 35 1012.9
20260502121402 62 69 0.0 2.6 0.00 0.00 0.00 35 1012.9
20260502120903 62 110 0.9 1.7 0.00 0.00 0.00 35 1012.8
20260502120402 62 112 0.0 1.7 0.00 0.00 0.00 35 1012.8
20260502115902 62 109 0.0 0.9 0.00 0.00 0.00 34 1012.8
20260502115403 62 113 0.0 0.0 0.00 0.00 0.00 34 1012.8
20260502114902 62 109 0.0 1.7 0.00 0.00 0.00 33 1012.8
20260502114403 63 109 0.0 1.7 0.00 0.00 0.00 33 1012.8
20260502112903 63 87 0.0 1.7 0.00 0.00 0.00 32 1012.8
20260502112402 63 136 0.0 1.7 0.00 0.00 0.00 33 1012.8
20260502111902 63 86 0.0 1.7 0.00 0.00 0.00 34 1012.8
20260502111403 63 79 0.0 1.7 0.00 0.00 0.00 34 1012.7
20260502110902 63 89 0.0 1.7 0.00 0.00 0.00 33 1012.7
20260502110403 63 90 0.0 2.6 0.00 0.00 0.00 32 1012.7
20260502105903 63 117 0.0 2.6 0.00 0.00 0.00 32 1012.8
20260502105402 63 112 1.7 2.6 0.00 0.00 0.00 32 1012.7
20260502104402 63 99 0.9 2.6 0.00 0.00 0.00 32 1012.8
20260502103902 63 112 0.9 1.7 0.00 0.00 0.00 32 1012.7
20260502103402 63 182 0.0 0.9 0.00 0.00 0.00 32 1012.7
20260502102902 63 159 0.0 0.9 0.00 0.00 0.00 32 1012.6
20260502102403 63 111 0.0 0.9 0.00 0.00 0.00 32 1012.5
20260502101902 63 103 0.0 0.9 0.00 0.00 0.00 32 1012.4
20260502101402 63 103 0.0 0.9 0.00 0.00 0.00 32 1012.4
20260502100902 63 102 0.0 2.6 0.00 0.00 0.00 31 1012.4
20260502100402 63 103 0.9 2.6 0.00 0.00 0.00 31 1012.5
20260502091402 64 91 0.0 2.6 0.00 0.00 0.00 32 1012.3
20260502090903 64 55 0.9 2.6 0.00 0.00 0.00 32 1012.3
20260502090402 65 68 0.0 2.6 0.00 0.00 0.00 32 1012.3
20260502071403 68 55 0.0 1.7 0.00 0.00 0.00 29 1012.6
20260502070903 68 55 0.0 1.7 0.00 0.00 0.00 29 1012.5
20260502070403 68 55 0.0 1.7 0.00 0.00 0.00 29 1012.5
20260502065903 69 55 0.0 1.7 0.00 0.00 0.00 29 1012.5
20260502065402 69 42 0.9 2.6 0.00 0.00 0.00 29 1012.5
20260502064403 69 34 0.9 2.6 0.00 0.00 0.00 27 1012.5
20260502063902 69 45 0.9 2.6 0.00 0.00 0.00 28 1012.6
20260502063402 69 36 0.0 1.7 0.00 0.00 0.00 29 1012.5
20260502062902 69 36 0.0 1.7 0.00 0.00 0.00 28 1012.4
20260502062403 70 34 0.9 2.6 0.00 0.00 0.00 28 1012.4
20260502061903 70 42 0.9 2.6 0.00 0.00 0.00 28 1012.3
20260502061402 70 38 0.9 2.6 0.00 0.00 0.00 28 1012.3
20260502060902 70 37 0.9 2.6 0.00 0.00 0.00 28 1012.2
20260502060402 70 50 0.9 2.6 0.00 0.00 0.00 28 1012.3
20260502055902 70 32 0.9 2.6 0.00 0.00 0.00 28 1012.2
20260502055402 70 24 0.9 2.6 0.00 0.00 0.00 28 1012.2
20260502054903 70 38 0.9 1.7 0.00 0.00 0.00 28 1012.2
20260502054403 70 40 0.0 1.7 0.00 0.00 0.00 28 1012.2
20260502053903 71 54 0.0 1.7 0.00 0.00 0.00 28 1012.2
20260502053403 71 51 0.0 1.7 0.00 0.00 0.00 28 1012.1
20260502052902 71 38 0.9 1.7 0.00 0.00 0.00 28 1012.2
20260502052402 71 39 0.0 1.7 0.00 0.00 0.00 28 1012.1
20260502051903 71 47 0.9 1.7 0.00 0.00 0.00 29 1012.1
20260502051403 71 56 0.0 1.7 0.00 0.00 0.00 29 1012.0
20260502050903 71 55 0.0 1.7 0.00 0.00 0.00 31 1011.9
20260502050403 71 53 0.9 1.7 0.00 0.00 0.00 31 1012.0
20260502045903 71 31 0.0 0.9 0.00 0.00 0.00 30 1012.0
20260502044403 74 350 0.0 0.9 0.00 0.00 0.00 24 1011.8
20260502043902 74 349 0.0 0.9 0.00 0.00 0.00 23 1011.8
20260502042902 75 348 0.0 0.9 0.00 0.00 0.00 23 1011.7
20260502042402 75 351 0.0 1.7 0.00 0.00 0.00 23 1011.7
20260502041903 75 351 0.0 1.7 0.00 0.00 0.00 23 1011.6
20260502041403 75 351 0.0 1.7 0.00 0.00 0.00 23 1011.6
20260502040402 76 324 0.0 1.7 0.00 0.00 0.00 23 1011.4
20260502035904 76 355 0.0 1.7 0.00 0.00 0.00 23 1011.4
20260502035403 76 355 0.9 1.7 0.00 0.00 0.00 22 1011.3
20260502034903 77 332 0.0 2.6 0.00 0.00 0.00 22 1011.2
20260502034403 77 358 0.0 2.6 0.00 0.00 0.00 22 1011.1
20260502033902 77 336 0.9 2.6 0.00 0.00 0.00 22 1011.1
20260502032402 78 340 0.9 2.6 0.00 0.00 0.00 22 1010.8
20260502031403 78 349 0.0 2.6 0.00 0.00 0.00 22 1010.7
20260502030903 78 1 0.9 2.6 0.00 0.00 0.00 21 1010.5
20260502030403 79 0 0.9 2.6 0.00 0.00 0.00 21 1010.5
20260502025402 79 346 0.9 2.6 0.00 0.00 0.00 21 1010.3
20260502024903 79 356 0.9 2.6 0.00 0.00 0.00 21 1010.3
20260502024403 80 345 0.9 2.6 0.00 0.00 0.00 20 1010.1
20260502023902 80 347 0.9 2.6 0.00 0.00 0.00 20 1010.1
20260502023403 80 279 1.7 2.6 0.00 0.00 0.00 20 1010.1
20260502022903 80 313 0.9 2.6 0.00 0.00 0.00 20 1010.1
20260502021902 81 335 0.9 2.6 0.00 0.00 0.00 19 1009.9
20260502021403 81 327 0.9 2.6 0.00 0.00 0.00 19 1009.8
20260502015902 82 296 1.7 4.3 0.00 0.00 0.00 19 1009.6
20260502015402 82 330 1.7 4.3 0.00 0.00 0.00 19 1009.6
20260502014904 83 348 0.9 4.3 0.00 0.00 0.00 19 1009.5
20260502014403 83 264 0.9 2.6 0.00 0.00 0.00 18 1009.5
20260502013403 83 203 0.9 2.6 0.00 0.00 0.00 18 1009.5
20260502012903 83 70 1.7 4.3 0.00 0.00 0.00 18 1009.4
20260502012403 83 174 1.7 7.0 0.00 0.00 0.00 18 1009.4
20260502011903 84 258 2.6 7.0 0.00 0.00 0.00 18 1009.4
20260502011403 84 306 1.7 4.3 0.00 0.00 0.00 18 1009.4
20260502010902 84 203 0.9 4.3 0.00 0.00 0.00 18 1009.4
20260502010403 84 261 1.7 7.0 0.00 0.00 0.00 17 1009.3
20260502005904 84 245 1.7 7.0 0.00 0.00 0.00 17 1009.3
20260502005403 84 187 1.7 5.2 0.00 0.00 0.00 17 1009.2
20260502004902 85 305 0.9 5.2 0.00 0.00 0.00 17 1009.2
20260502004403 85 211 0.9 7.0 0.00 0.00 0.00 17 1009.2
20260502003902 85 142 1.7 7.0 0.00 0.00 0.00 17 1009.2
20260502002902 85 274 1.7 6.1 0.00 0.00 0.00 16 1009.3
20260502002403 85 356 1.7 7.0 0.00 0.00 0.00 16 1009.3
20260502001903 86 206 2.6 7.8 0.00 0.00 0.00 16 1009.4
20260502001402 86 221 4.3 7.8 0.00 0.00 0.00 16 1009.3
20260502000902 86 297 0.9 4.3 0.00 0.00 0.00 17 1009.3
20260502000403 86 233 0.9 6.1 0.00 0.00 0.00 17 1009.4
20260501235903 86 203 2.6 6.1 0.00 0.00 0.00 16 1009.3
20260501235402 85 225 1.7 5.2 0.00 0.00 0.00 16 1009.4
20260501233902 87 239 4.3 12.2 0.00 0.00 0.00 15 1009.4
20260501233403 87 231 4.3 11.3 0.00 0.00 0.00 16 1009.4
20260501232903 87 234 2.6 8.7 0.00 0.00 0.00 17 1009.4
20260501232403 87 4 1.7 8.7 0.00 0.00 0.00 16 1009.4
20260501231902 88 207 1.7 8.7 0.00 0.00 0.00 16 1009.4
20260501231403 88 220 2.6 10.4 0.00 0.00 0.00 16 1009.4
20260501230902 87 333 1.7 10.4 0.00 0.00 0.00 18 1009.4
20260501230403 86 239 1.7 5.2 0.00 0.00 0.00 18 1009.4
20260501225903 87 311 1.7 7.8 0.00 0.00 0.00 17 1009.6
20260501225402 87 214 2.6 7.8 0.00 0.00 0.00 17 1009.6
20260501224902 87 230 2.6 7.0 0.00 0.00 0.00 17 1009.5
20260501224403 88 278 1.7 8.7 0.00 0.00 0.00 17 1009.6
20260501223402 88 297 3.5 7.8 0.00 0.00 0.00 17 1009.7
20260501222903 87 279 1.7 6.1 0.00 0.00 0.00 18 1009.8
20260501221902 87 215 2.6 5.2 0.00 0.00 0.00 18 1010.0
20260501221403 86 241 1.7 4.3 0.00 0.00 0.00 18 1010.0
20260501220903 87 141 0.9 2.6 0.00 0.00 0.00 18 1010.1
20260501220402 87 206 1.7 7.0 0.00 0.00 0.00 18 1010.3
20260501215902 88 176 2.6 7.0 0.00 0.00 0.00 18 1010.3
20260501215403 87 331 1.7 7.0 0.00 0.00 0.00 18 1010.3
20260501214902 86 229 0.9 4.3 0.00 0.00 0.00 20 1010.4
20260501214402 85 101 1.7 5.2 0.00 0.00 0.00 19 1010.4
20260501213903 88 240 1.7 5.2 0.00 0.00 0.00 18 1010.5
20260501213402 87 239 2.6 8.7 0.00 0.00 0.00 18 1010.7
20260501212902 87 245 1.7 8.7 0.00 0.00 0.00 17 1010.7
20260501212403 87 229 2.6 8.7 0.00 0.00 0.00 18 1010.7
20260501211902 86 253 1.7 7.8 0.00 0.00 0.00 18 1010.8
20260501211402 87 25 1.7 6.1 0.00 0.00 0.00 18 1010.9
20260501210902 86 324 1.7 6.1 0.00 0.00 0.00 19 1011.0
20260501210402 85 92 0.9 7.0 0.00 0.00 0.00 20 1011.1
20260501205903 86 187 2.6 7.0 0.00 0.00 0.00 18 1011.2
20260501204903 86 1 1.7 7.8 0.00 0.00 0.00 18 1011.3
20260501204402 86 36 2.6 7.8 0.00 0.00 0.00 19 1011.3
20260501203903 85 315 1.7 7.8 0.00 0.00 0.00 20 1011.4
20260501203402 84 219 0.9 6.1 0.00 0.00 0.00 18 1011.4
20260501202902 85 225 3.5 7.0 0.00 0.00 0.00 20 1011.5
20260501202403 84 285 0.9 7.0 0.00 0.00 0.00 19 1011.5
20260501201902 86 229 1.7 5.2 0.00 0.00 0.00 18 1011.6
20260501200403 84 245 1.7 4.3 0.00 0.00 0.00 19 1011.6
20260501195903 84 229 0.9 2.6 0.00 0.00 0.00 20 1011.6
20260501195403 84 249 0.0 4.3 0.00 0.00 0.00 20 1011.7
20260501194903 85 204 1.7 5.2 0.00 0.00 0.00 20 1011.8
20260501194403 85 335 2.6 6.1 0.00 0.00 0.00 19 1011.8
20260501193403 83 236 1.7 6.1 0.00 0.00 0.00 20 1011.9
20260501192902 82 217 1.7 6.1 0.00 0.00 0.00 22 1012.0
20260501192403 83 230 2.6 6.1 0.00 0.00 0.00 21 1012.1
20260501191903 83 295 1.7 5.2 0.00 0.00 0.00 21 1012.1
20260501190902 83 224 2.6 6.1 0.00 0.00 0.00 21 1012.3
20260501190403 82 326 1.7 6.1 0.00 0.00 0.00 22 1012.4
20260501185904 83 310 2.6 6.1 0.00 0.00 0.00 22 1012.5
20260501185402 83 318 1.7 7.0 0.00 0.00 0.00 22 1012.5
20260501184902 82 192 2.6 7.0 0.00 0.00 0.00 22 1012.6
20260501184402 81 215 1.7 7.0 0.00 0.00 0.00 24 1012.6
20260501183903 81 230 1.7 7.0 0.00 0.00 0.00 24 1012.7
20260501183402 81 218 2.6 6.1 0.00 0.00 0.00 25 1012.7
20260501182903 80 193 1.7 6.1 0.00 0.00 0.00 25 1012.8
20260501182403 82 267 2.6 6.1 0.00 0.00 0.00 23 1012.9
20260501181403 81 25 1.7 7.0 0.00 0.00 0.00 25 1013.0
20260501180902 81 226 1.7 7.0 0.00 0.00 0.00 25 1013.1
20260501180403 80 333 0.9 10.4 0.00 0.00 0.00 25 1013.1
20260501175403 79 35 1.7 6.1 0.00 0.00 0.00 28 1013.1
20260501174903 79 208 1.7 6.1 0.00 0.00 0.00 27 1013.2
20260501173403 78 289 0.9 6.1 0.00 0.00 0.00 31 1013.3